This is the latest recevied weather packets stored in our database for station/object KK7ISX. If no packets are shown the sender has not sent any weather packets the latest 10 day(s).
| Time | Temp. | Humidity | Pressure | Rain* | Wind** | Luminosity | Snow |
|---|---|---|---|---|---|---|---|
| 1777102397 | 2.22° C | 67% | 1012.9 hPa | 0 mm | - | 0 W/m² | - |
| 1777102093 | 1.67° C | 68% | 1012.8 hPa | 0 mm | - | 0 W/m² | - |
| 1777101789 | 1.67° C | 72% | 1013 hPa | 0 mm | - | 0 W/m² | - |
| 1777101485 | 1.67° C | 72% | 1012.8 hPa | 0 mm | - | 0 W/m² | - |
| 1777101182 | 1.67° C | 71% | 1012.6 hPa | 0 mm | - | 0 W/m² | - |
| 1777100878 | 1.67° C | 72% | 1012.8 hPa | 0 mm | - | 0 W/m² | - |
| 1777100574 | 1.67° C | 73% | 1012.9 hPa | 0 mm | - | 0 W/m² | - |
| 1777100271 | 1.67° C | 73% | 1012.9 hPa | 0 mm | - | 0 W/m² | - |
| 1777099969 | 1.67° C | 72% | 1012.9 hPa | 0 mm | - | 0 W/m² | - |
| 1777099664 | 1.67° C | 72% | 1012.6 hPa | 0 mm | - | 0 W/m² | - |
| 1777099360 | 2.22° C | 72% | 1012.8 hPa | 0 mm | - | 0 W/m² | - |
| 1777099058 | 2.22° C | 70% | 1012.6 hPa | 0 mm | - | 0 W/m² | - |
| 1777098754 | 2.22° C | 70% | 1012.6 hPa | 0 mm | - | 0 W/m² | - |
| 1777098450 | 2.78° C | 70% | 1012.8 hPa | 0 mm | - | 0 W/m² | - |
| 1777098148 | 2.78° C | 69% | 1013 hPa | 0 mm | - | 0 W/m² | - |
| 1777097844 | 2.78° C | 67% | 1012.9 hPa | 0 mm | - | 0 W/m² | - |
| 1777097542 | 3.33° C | 67% | 1013.1 hPa | 0 mm | - | 0 W/m² | - |
| 1777097239 | 2.78° C | 66% | 1013 hPa | 0 mm | - | 0 W/m² | - |
| 1777096936 | 3.33° C | 66% | 1013.1 hPa | 0 mm | - | 0 W/m² | - |
| 1777096635 | 3.33° C | 65% | 1013.2 hPa | 0 mm | - | 0 W/m² | - |
| 1777096330 | 3.89° C | 64% | 1013.1 hPa | 0 mm | - | 0 W/m² | - |
| 1777096025 | 3.89° C | 62% | 1013.1 hPa | 0 mm | - | 0 W/m² | - |
| 1777095721 | 4.44° C | 58% | 1013.2 hPa | 0 mm | - | 0 W/m² | - |
| 1777095417 | 5° C | 58% | 1013.1 hPa | 0 mm | - | 0 W/m² | - |
| 1777095113 | 6.67° C | 56% | 1013.2 hPa | 0 mm | - | 0 W/m² | - |
* Rain latest hour (hover to see other rain measurements)
** Current wind speed in m/s (hover to see current wind gust speed)